CT1AKV-10 Estrada Real PT current weather conditions

sailwx.info

Air temperature 15.6° C
Dewpoint 15.4° C

Last reported at 2017-May-27 06:00 UTC.
Time now 2017-May-27 06:14 UTC

Location: N 39°11' W 008°44'.
View on Google Maps.

See reports from other nearby stations

  
Tides and Currents Weather Stations Pressure Air Temp Water Temp Dewpoint Dewpoint Depression Visibility Wind Speed Wind Dir Waves Ship Positions
date/time (UTC)wind fromknots sea level pressurealtimeterstation pressurevisibilityair tempwater tempwave heightnotes
2017-May-27 06:00 15.6
2017-May-27 05:45 15.0
2017-May-27 05:30 15.0
2017-May-27 05:15 14.4
2017-May-27 05:00 14.4
2017-May-27 04:45 14.4
2017-May-27 04:30 063 14.4
2017-May-27 04:15 045 14.4
2017-May-27 04:00 298 15.0
2017-May-27 03:45 15.0
2017-May-27 03:30 262 0 gusting 3 15.0
2017-May-27 03:15 290 15.0
2017-May-27 03:00 314 15.0
2017-May-27 02:45 270 15.0
2017-May-27 02:30 308 15.0
2017-May-27 02:15 304 15.0
2017-May-27 02:00 306 15.0
2017-May-27 01:45 282 0 gusting 4 15.0
2017-May-27 01:30 291 0 gusting 3 15.0
2017-May-27 01:15 306 1 gusting 4 15.0
2017-May-27 01:00 315 1 gusting 6 15.0
2017-May-27 00:45 306 1 gusting 4 15.0
2017-May-27 00:30 293 1 gusting 4 15.6
2017-May-27 00:15 335 0 gusting 6 15.6
2017-May-27 00:00 286 1 gusting 3 15.6
2017-May-26 23:45 286 1 gusting 5 15.6
2017-May-26 23:30 309 1 gusting 5 15.6
2017-May-26 23:15 308 1 gusting 4 16.1
2017-May-26 23:00 305 1 gusting 4 16.1
2017-May-26 22:45 296 1 gusting 6 16.1
2017-May-26 22:30 288 2 gusting 6 16.7
2017-May-26 22:15 305 2 gusting 8 16.7
2017-May-26 22:00 296 2 gusting 6 16.7
2017-May-26 21:45 295 2 gusting 7 16.7
2017-May-26 21:30 303 3 gusting 7 17.2
2017-May-26 21:15 296 2 gusting 6 17.2
2017-May-26 21:00 295 2 gusting 6 17.8
2017-May-26 20:45 315 3 gusting 7 17.8
2017-May-26 20:30 298 2 gusting 7 17.8
2017-May-26 20:15 304 3 gusting 7 17.8
2017-May-26 20:00 292 3 gusting 9 18.3
2017-May-26 19:45 298 3 gusting 11 18.9
2017-May-26 19:30 294 3 gusting 10 19.4
2017-May-26 19:15 298 4 gusting 9 20.0
2017-May-26 19:00 306 4 gusting 11 21.1
2017-May-26 18:45 253 4 gusting 10 21.7
2017-May-26 18:30 324 3 gusting 9 22.2
2017-May-26 18:15 325 3 gusting 10 23.9
2017-May-26 18:00 300 2 gusting 9 25.0
2017-May-26 17:45 284 2 gusting 6 26.7
2017-May-26 17:30 281 1 gusting 6 26.7
2017-May-26 17:15 321 1 gusting 7 27.2
2017-May-26 17:00 286 1 gusting 6 29.4
2017-May-26 16:45 293 1 gusting 5 30.0
2017-May-26 16:30 289 1 gusting 5 30.6
2017-May-26 16:15 288 1 gusting 6 30.6
2017-May-26 16:00 283 1 gusting 5 29.4
2017-May-26 15:45 299 1 gusting 6 30.6
2017-May-26 15:30 238 1 gusting 6 29.4
2017-May-26 15:15 305 2 gusting 6 30.6
2017-May-26 15:00 324 0 gusting 4 28.9
2017-May-26 14:45 312 1 gusting 5 30.6
2017-May-26 14:30 272 0 gusting 3 30.0
2017-May-26 14:15 312 1 gusting 4 28.3
2017-May-26 14:00 322 1 gusting 5 26.7
2017-May-26 13:45 290 1 gusting 6 25.6
2017-May-26 13:30 298 1 gusting 4 25.6
2017-May-26 13:15 298 1 gusting 6 25.0
2017-May-26 13:00 323 1 gusting 6 25.6
2017-May-26 12:45 261 1 gusting 4 24.4
2017-May-26 12:30 286 1 gusting 4 24.4
2017-May-26 12:15 289 1 gusting 5 24.4
2017-May-26 12:00 313 1 gusting 4 23.3
2017-May-26 11:45 002 0 gusting 3 23.3
2017-May-26 11:30 326 0 gusting 3 24.4
2017-May-26 11:15 318 0 gusting 2 23.9
2017-May-26 11:00 287 0 gusting 3 24.4
2017-May-26 10:45 325 0 gusting 3 23.9
2017-May-26 10:30 093 0 gusting 3 23.3
2017-May-26 10:15 351 0 gusting 3 23.3
2017-May-26 10:00 338 1 gusting 4 22.2
2017-May-26 09:45 287 0 gusting 3 22.2
2017-May-26 09:30 322 0 gusting 3 22.2
2017-May-26 09:15 326 0 gusting 4 21.7
2017-May-26 09:00 322 0 gusting 3 21.1
2017-May-26 08:45 327 0 gusting 4 21.7
2017-May-26 08:30 341 1 gusting 5 21.7
2017-May-26 08:15 328 1 gusting 4 20.0
2017-May-26 08:00 315 1 gusting 4 19.4
2017-May-26 07:45 311 1 gusting 6 18.9
2017-May-26 07:30 290 1 gusting 6 18.3
2017-May-26 07:15 284 1 gusting 5 18.9
2017-May-26 07:00 322 1 gusting 6 18.9
2017-May-26 06:45 286 1 gusting 5 18.9
2017-May-26 06:30 306 1 gusting 5 18.3
2017-May-26 06:15 288 0 gusting 3 17.8
2017-May-26 06:00 294 0 gusting 3 16.7
2017-May-26 05:45 305 1 gusting 6 16.1
2017-May-26 05:30 309 1 gusting 6 16.1
2017-May-26 05:15 304 1 gusting 6 15.6
2017-May-26 05:00 283 1 gusting 3 15.6
2017-May-26 04:45 285 0 gusting 3 15.6
2017-May-26 04:30 288 0 gusting 3 15.6
2017-May-26 04:15 317 1 gusting 6 16.1
2017-May-26 04:00 311 0 gusting 3 16.1
2017-May-26 03:45 307 0 gusting 4 16.1
2017-May-26 03:30 279 1 gusting 4 16.1
2017-May-26 03:15 310 1 gusting 6 16.1
2017-May-26 03:00 299 2 gusting 6 16.1
2017-May-26 02:45 274 2 gusting 6 16.7
2017-May-26 02:30 318 2 gusting 6 16.7
2017-May-26 02:15 306 2 gusting 6 16.7
2017-May-26 02:00 320 1 gusting 6 16.7
2017-May-26 01:45 279 2 gusting 8 16.7
2017-May-26 01:30 265 2 gusting 6 16.7
2017-May-26 01:15 302 2 gusting 6 16.7
2017-May-26 01:00 294 2 gusting 6 16.7
2017-May-26 00:45 279 2 gusting 7 16.7
2017-May-26 00:30 300 2 gusting 6 16.7
2017-May-26 00:15 297 2 gusting 9 16.7
2017-May-26 00:00 302 2 gusting 10 16.7
2017-May-25 23:45 307 3 gusting 9 16.7
2017-May-25 23:30 299 3 gusting 8 17.2
2017-May-25 23:15 307 3 gusting 9 17.2
2017-May-25 23:00 285 4 gusting 12 17.2
2017-May-25 22:45 272 3 gusting 10 17.2
2017-May-25 22:30 297 3 gusting 10 17.2
2017-May-25 22:15 284 4 gusting 10 17.2
2017-May-25 22:00 302 4 gusting 12 17.2
2017-May-25 21:45 298 3 gusting 13 17.2
2017-May-25 21:30 320 3 gusting 13 17.8
2017-May-25 21:15 301 3 gusting 8 17.8
2017-May-25 21:00 291 3 gusting 9 17.8
2017-May-25 20:45 305 3 gusting 9 17.8
2017-May-25 20:30 303 3 gusting 10 18.3
2017-May-25 20:15 306 4 gusting 13 18.3
2017-May-25 20:00 314 6 gusting 13 18.9
2017-May-25 19:45 322 6 gusting 14 20.0
2017-May-25 19:30 295 5 gusting 13 20.6
2017-May-25 19:15 299 5 gusting 11 21.1
2017-May-25 19:00 322 5 gusting 13 22.2
2017-May-25 18:45 296 5 gusting 12 23.3
2017-May-25 18:30 293 5 gusting 13 24.4
2017-May-25 18:15 300 4 gusting 13 26.1
2017-May-25 18:00 283 4 gusting 10 27.2
2017-May-25 17:45 284 4 gusting 10 28.3
2017-May-25 17:30 301 4 gusting 11 28.9
2017-May-25 17:15 319 4 gusting 13 29.4
2017-May-25 17:00 306 5 gusting 13 30.0
2017-May-25 16:45 291 3 gusting 12 31.1
2017-May-25 16:30 312 4 gusting 13 31.1
2017-May-25 16:15 295 5 gusting 13 31.1
2017-May-25 16:00 308 5 gusting 12 31.1
2017-May-25 15:45 328 4 gusting 13 31.7
2017-May-25 15:30 294 5 gusting 12 31.7
2017-May-25 15:15 315 5 gusting 13 31.7
2017-May-25 15:00 294 5 gusting 13 32.2
2017-May-25 14:45 302 5 gusting 12 33.3
2017-May-25 14:30 298 5 gusting 11 33.3
2017-May-25 14:15 309 5 gusting 13 35.6
2017-May-25 14:00 001 2 gusting 6 37.8
2017-May-25 13:45 020 1 gusting 6 37.8
2017-May-25 13:30 327 1 gusting 5 38.3
2017-May-25 13:15 043 1 gusting 8 37.2
2017-May-25 13:00 050 1 gusting 4 36.1
2017-May-25 12:45 330 0 gusting 3 37.2
2017-May-25 12:30 012 2 gusting 6 36.1
2017-May-25 12:15 017 1 gusting 6 36.1
2017-May-25 12:00 047 1 gusting 4 35.6
2017-May-25 11:45 024 1 gusting 5 34.4
2017-May-25 11:30 081 1 gusting 4 33.9
2017-May-25 11:15 049 2 gusting 6 32.2
2017-May-25 11:00 025 3 gusting 7 30.6
2017-May-25 10:31 041 3 gusting 8 30.0
2017-May-25 09:16 011 2 gusting 6 27.2
2017-May-25 09:01 041 2 gusting 5 27.2
2017-May-25 08:46 007 2 gusting 5 27.2
2017-May-25 08:32 347 1 gusting 4 27.2
2017-May-25 07:16 321 19.4
2017-May-25 07:01 267 19.4
2017-May-25 06:46 343 18.9
2017-May-25 06:31 302 0 gusting 3 18.9
2017-May-25 06:16 177 0 gusting 3 18.9
2017-May-25 06:01 312 0 gusting 5 18.3